[[{"header":{"parameterUnit":"m.s-1","parameterCategory":1,"la1":30.2991,"la2":30.254,"lo1":-89.0895,"lo2":-89.0444,"dy":0.0017,"dx":0.0017,"nx":28,"ny":28,"refTime":"2024-08-15T21:00:00:Z","depth":0,"parameterNumber":2,"parameterNumberName":"U-component_of_WINDS"},"data":[0,0,0,0,0,0,0,0,0,0,0,0,0,0,0,0,0,0,0,0,0,0,0,0,0,0,0,0,0,0,0,0,0,0,0,0,0,0,0,0,0,0,0,0,0,0,0,0,0,0,0,0,0,0,0,0,0,0,-0.8141,-0.8141,0,-0.8109,-0.8108,-0.8108,-0.8083,-0.8083,-0.8082,-0.8082,-0.8049,-0.8048,-0.8048,0,0,0,0,0,0,0,0,0,0,0,0,0,-0.8183,-0.8182,-0.8141,-0.8141,-0.8141,-0.8109,-0.8108,-0.8108,-0.8083,-0.8083,-0.8082,-0.8082,-0.8049,-0.8048,-0.8048,0,0,0,0,0,0,0,0,0,0,0,0,0,-0.8159,-0.8182,-0.8142,-0.8124,-0.8122,-0.8109,-0.8108,-0.8108,-0.8083,-0.8083,-0.8082,-0.8082,-0.8049,-0.8048,-0.8047,-0.8048,0,0,-0.8044,-0.8044,0,0,0,0,0,0,0,0,-0.816,-0.8158,-0.8127,-0.8125,-0.8123,-0.8099,-0.8111,-0.8088,-0.8083,-0.8098,-0.8082,-0.8082,-0.8066,-0.8064,-0.8058,-0.8047,-0.8045,-0.8044,-0.8044,-0.8043,-0.8043,0,0,0,0,0,0,0,-0.8162,-0.8159,-0.8128,-0.8127,-0.8124,-0.8118,-0.8115,-0.8106,-0.8084,-0.8097,-0.8095,-0.8091,-0.8065,-0.8059,-0.8057,-0.8045,-0.8044,-0.8043,-0.8043,-0.8042,-0.8033,-0.8034,0,0,0,0,0,0,-0.8166,-0.816,-0.813,-0.8128,-0.8141,-0.8118,-0.8114,-0.8108,-0.8084,-0.8081,-0.8092,-0.809,-0.8061,-0.8059,-0.8056,-0.8056,-0.8043,-0.8042,-0.8042,-0.8033,-0.8033,-0.8034,0,0,0,0,0,0,-0.8167,-0.8164,-0.8131,-0.8143,-0.8139,-0.8118,-0.8111,-0.8107,-0.8101,-0.8081,-0.8077,-0.809,-0.8061,-0.8057,-0.8051,-0.8055,-0.8042,-0.8041,-0.8033,-0.8033,-0.8034,-0.8056,0,0,0,0,0,0,-0.8169,-0.8164,-0.8164,-0.8144,-0.8138,-0.8126,-0.8111,-0.8107,-0.81,-0.8098,-0.8078,-0.8074,-0.806,-0.8052,-0.805,-0.8053,-0.804,-0.8032,-0.8033,-0.8033,-0.8055,-0.8058,-0.806,0,0,0,0,0,-0.817,-0.8172,-0.8164,-0.8161,-0.8138,-0.8126,-0.8123,-0.8107,-0.81,-0.81,-0.8087,-0.8075,-0.8055,-0.8052,-0.8049,-0.8052,-0.8032,-0.8033,-0.8033,-0.8054,-0.8057,-0.806,0,0,0,0,0,0,-0.8194,-0.8169,-0.816,-0.8155,-0.8143,-0.8122,-0.8121,-0.811,-0.81,-0.8098,-0.8079,-0.8074,-0.807,-0.806,-0.8057,-0.8052,-0.8042,-0.8042,-0.8059,-0.8061,-0.8063,-0.8066,-0.8039,0,0,0,0,0,-0.8198,-0.8191,-0.817,-0.8167,-0.8162,-0.8143,-0.8137,-0.8126,-0.8112,-0.8107,-0.8093,-0.808,-0.8071,-0.8066,-0.8056,-0.8053,-0.8049,-0.8054,-0.8056,-0.8058,-0.8059,-0.8057,-0.806,-0.8036,-0.8036,-0.8036,0,0,-0.8208,-0.8193,-0.819,-0.8172,-0.8161,-0.8154,-0.8138,-0.8131,-0.8126,-0.8106,-0.8099,-0.8088,-0.8073,-0.8068,-0.8066,-0.806,-0.8064,-0.8059,-0.8061,-0.8061,-0.8059,-0.8061,-0.8063,-0.8037,-0.8037,-0.8037,0,0,-0.8221,-0.821,-0.8207,-0.8196,-0.818,-0.8167,-0.8167,-0.8147,-0.814,-0.8132,-0.8117,-0.811,-0.8095,-0.8085,-0.8077,-0.8088,-0.8077,-0.8085,-0.8097,-0.8096,-0.8098,-0.81,-0.8104,-0.8106,-0.8086,-0.8086,-0.8086,0,-0.8235,-0.8224,-0.8206,-0.8201,-0.8193,-0.8175,-0.8172,-0.8162,-0.8144,-0.814,-0.8133,-0.8114,-0.8102,-0.8096,-0.8098,-0.8093,-0.8092,-0.8088,-0.8099,-0.81,-0.8102,-0.8106,-0.8107,-0.8087,-0.8087,-0.8087,-0.8087,0,-0.8242,-0.8235,-0.8234,-0.8217,-0.821,-0.8205,-0.8188,-0.8182,-0.8172,-0.816,-0.8153,-0.8138,-0.8126,-0.8123,-0.8112,-0.8115,-0.8112,-0.8103,-0.8092,-0.8105,-0.8109,-0.811,-0.8089,-0.8088,-0.8088,-0.8088,0,0,-0.827,-0.8243,-0.8243,-0.8236,-0.8217,-0.821,-0.8206,-0.8193,-0.8189,-0.8177,-0.8173,-0.816,-0.8152,-0.8144,-0.8132,-0.8131,-0.8141,-0.8122,-0.8121,-0.8127,-0.8144,-0.8151,-0.8153,-0.8133,-0.8134,-0.8134,-0.8145,0,-0.8281,-0.8271,-0.8255,-0.8251,-0.8244,-0.8226,-0.8222,-0.821,-0.8199,-0.8191,-0.8179,-0.8171,-0.816,-0.8155,-0.8153,-0.814,-0.8144,-0.8139,-0.813,-0.8129,-0.8134,-0.8155,-0.8162,-0.8174,-0.8146,-0.8146,-0.8147,0,-0.8293,-0.8282,-0.8277,-0.8258,-0.8255,-0.8251,-0.8239,-0.8232,-0.8219,-0.8211,-0.8202,-0.8189,-0.8183,-0.8174,-0.8166,-0.8162,-0.8158,-0.8151,-0.8151,-0.815,-0.8139,-0.8155,-0.8177,-0.8179,-0.8148,-0.8148,-0.8148,0,-0.8314,-0.8298,-0.8293,-0.8287,-0.8265,-0.8264,-0.8255,-0.824,-0.8234,-0.8223,-0.8219,-0.8208,-0.8202,-0.8194,-0.8178,-0.8173,-0.8172,-0.8161,-0.8166,-0.8166,-0.8167,-0.8167,-0.8189,-0.8163,-0.8163,-0.8163,-0.8163,0,-0.8329,-0.8326,-0.8303,-0.8299,-0.8296,-0.8278,-0.8276,-0.8265,-0.8253,-0.8248,-0.8231,-0.8227,-0.8207,-0.82,-0.8188,-0.8183,-0.8181,-0.8174,-0.8171,-0.8176,-0.8177,-0.8173,-0.8172,-0.8164,-0.8163,-0.8163,-0.8163,0,-0.8352,-0.8336,-0.833,-0.831,-0.8305,-0.8304,-0.8287,-0.8283,-0.8271,-0.8265,-0.8263,-0.8244,-0.8235,-0.8219,-0.8206,-0.8197,-0.8196,-0.819,-0.8201,-0.8199,-0.8205,-0.8205,-0.8225,-0.8227,-0.82,-0.82,-0.82,0,-0.8363,-0.8361,-0.8341,-0.8336,-0.8328,-0.832,-0.8314,-0.8296,-0.829,-0.8275,-0.8273,-0.8263,-0.8254,-0.8241,-0.8227,-0.8216,-0.8211,-0.8219,-0.8209,-0.8214,-0.8211,-0.8212,-0.8212,-0.8221,-0.8221,-0.8222,-0.8222,0,-0.8383,-0.8376,-0.8367,-0.8356,-0.8349,-0.8339,-0.8328,-0.8326,-0.8306,-0.83,-0.8291,-0.8284,-0.827,-0.8261,-0.8248,-0.8239,-0.8228,-0.8225,-0.8226,-0.8231,-0.8237,-0.8235,-0.8207,-0.8225,-0.8224,-0.8224,-0.8224,-0.8224,-0.8401,-0.8398,-0.8384,-0.8375,-0.8366,-0.8356,-0.8352,-0.834,-0.8332,-0.832,-0.831,-0.8302,-0.8288,-0.827,-0.8262,-0.8256,-0.825,-0.8251,-0.8251,-0.8252,-0.8254,-0.8238,-0.8253,-0.8253,-0.8253,-0.8253,-0.8253,0,-0.8421,-0.8411,-0.8403,-0.8389,-0.8382,-0.8372,-0.836,-0.8355,-0.8348,-0.8336,-0.8328,-0.8318,-0.8308,-0.8293,-0.8283,-0.828,-0.8275,-0.8278,-0.8279,-0.8277,-0.8259,-0.826,-0.8283,-0.8283,-0.8283,-0.8283,-0.8283,-0.8283,-0.8431,-0.8426,-0.8417,-0.8407,-0.8397,-0.8389,-0.8383,-0.8375,-0.8366,-0.8355,-0.8347,-0.8337,-0.8325,-0.8313,-0.8304,-0.83,-0.8297,-0.8303,-0.8297,-0.8281,-0.8278,-0.8275,-0.8276,-0.8302,-0.8302,-0.8315,-0.8315,-0.8315]},{"header":{"parameterUnit":"m.s-1","parameterCategory":1,"la1":30.2991,"la2":30.254,"lo1":-89.0895,"lo2":-89.0444,"dy":0.0017,"dx":0.0017,"nx":28,"ny":28,"refTime":"2024-08-15T21:00:00:Z","depth":0,"parameterNumber":3,"parameterNumberName":"V-component_of_WINDS"},"data":[0,0,0,0,0,0,0,0,0,0,0,0,0,0,0,0,0,0,0,0,0,0,0,0,0,0,0,0,0,0,0,0,0,0,0,0,0,0,0,0,0,0,0,0,0,0,0,0,0,0,0,0,0,0,0,0,0,0,2.9916,2.9917,0,2.9979,2.998,2.998,2.9956,2.9955,2.9954,2.9952,3.0012,3.0015,3.0018,0,0,0,0,0,0,0,0,0,0,0,0,0,2.9769,2.9772,2.9916,2.9917,2.9917,2.9979,2.998,2.998,2.9957,2.9955,2.9953,2.9952,3.0011,3.0015,3.0018,0,0,0,0,0,0,0,0,0,0,0,0,0,2.9832,2.9772,2.9916,2.9913,2.9913,2.9979,2.998,2.9981,2.9957,2.9955,2.9953,2.9951,3.001,3.0014,3.0019,3.0089,0,0,3.0032,3.0034,0,0,0,0,0,0,0,0,2.9829,2.9838,2.9913,2.9913,2.9914,2.9958,2.995,3.0017,2.9958,2.994,2.9952,2.995,2.9995,3.0001,3.0017,3.0091,3.0094,3.0032,3.0035,3.0037,3.0038,0,0,0,0,0,0,0,2.9824,2.9835,2.9941,2.9914,2.9914,2.9907,2.9913,2.9962,2.9979,2.9942,2.994,2.9948,2.9995,3.0013,3.0018,3.0095,3.0032,3.0036,3.0039,3.0041,3.0227,3.0229,0,0,0,0,0,0,2.982,2.9831,2.9939,2.9942,2.9865,2.9911,2.9919,2.9946,2.9978,2.9981,2.995,2.9947,3.0007,3.0013,3.002,3.0103,3.0037,3.0041,3.0043,3.0225,3.0227,3.023,0,0,0,0,0,0,2.9817,2.983,2.9936,2.9886,2.9899,2.9916,2.9947,2.9948,2.9966,2.9985,2.9987,2.9965,3.0005,3.0014,3.0072,3.0105,3.0043,3.0047,3.0222,3.0226,3.0229,3.027,0,0,0,0,0,0,2.9813,2.9829,2.9858,2.9887,2.9902,2.9988,2.9949,2.9951,2.9974,2.9971,3.0,3.0003,3.0004,3.0065,3.0076,3.011,3.005,3.0219,3.0224,3.0228,3.0265,3.0274,3.0282,0,0,0,0,0,2.9808,2.9866,2.9859,2.9872,2.9938,2.999,2.9998,3.0,2.9977,3.0004,3.0016,3.0002,3.01,3.0071,3.0083,3.0119,3.0217,3.0222,3.0227,3.0262,3.0272,3.0281,0,0,0,0,0,0,2.9839,2.987,2.9863,2.9933,2.9959,2.9986,3.0021,3.0012,3.0044,3.004,3.0039,3.0046,3.0105,3.0117,3.0085,3.0187,3.0154,3.0162,3.0177,3.0187,3.0195,3.019,3.0054,0,0,0,0,0,2.9854,2.9895,2.992,2.9979,2.9992,3.0005,3.0027,3.0026,3.0053,3.0064,3.008,3.0105,3.0141,3.0165,3.0199,3.0267,3.0272,3.0297,3.0305,3.0312,3.0318,3.0353,3.0364,3.0247,3.0247,3.0247,0,0,2.9885,2.9907,2.9933,2.9985,3.0006,3.0046,3.0014,3.0059,3.0088,3.007,3.0125,3.0138,3.0165,3.0228,3.0256,3.024,3.0352,3.0319,3.0324,3.0327,3.036,3.0371,3.038,3.0251,3.025,3.0249,0,0,2.9962,2.9984,3.0035,3.0056,3.0088,3.0095,3.0107,3.0136,3.0143,3.0199,3.0186,3.022,3.0283,3.0302,3.0321,3.0404,3.0391,3.0415,3.0457,3.049,3.05,3.0508,3.0535,3.0546,3.0421,3.0421,3.0421,0,2.9996,3.0059,3.0062,3.0108,3.013,3.0116,3.0166,3.0186,3.0227,3.0241,3.0223,3.0301,3.0319,3.0385,3.0405,3.0421,3.0433,3.0411,3.0498,3.0507,3.0514,3.054,3.0551,3.0424,3.0424,3.0423,3.0423,0,3.0099,3.0142,3.0179,3.022,3.0246,3.0294,3.0301,3.0327,3.0324,3.0333,3.0388,3.0409,3.0446,3.0462,3.0459,3.0527,3.0516,3.0498,3.0465,3.0528,3.0552,3.0563,3.0428,3.0427,3.0426,3.0425,0,0,3.0197,3.0238,3.0252,3.0269,3.0302,3.0335,3.038,3.0419,3.044,3.0468,3.0505,3.0558,3.0541,3.0562,3.0561,3.0591,3.0652,3.0569,3.0569,3.0582,3.0726,3.0738,3.075,3.0644,3.0646,3.0648,3.0723,0,3.0276,3.0359,3.0361,3.0436,3.0474,3.0461,3.05,3.0524,3.0533,3.0565,3.0574,3.0611,3.0588,3.06,3.0629,3.0639,3.0681,3.0634,3.0676,3.0678,3.0669,3.0763,3.0777,3.0847,3.0733,3.0735,3.0736,0,3.0379,3.0411,3.049,3.0516,3.0532,3.0568,3.0601,3.0634,3.0659,3.0663,3.0685,3.0679,3.0724,3.069,3.075,3.0717,3.0735,3.0742,3.0745,3.0748,3.071,3.0767,3.0869,3.0879,3.0752,3.075,3.0749,0,3.0441,3.0504,3.0558,3.0574,3.0606,3.0631,3.0645,3.0669,3.069,3.0719,3.0733,3.0767,3.0785,3.081,3.0812,3.0787,3.0871,3.0838,3.0874,3.0874,3.0891,3.089,3.0996,3.0905,3.0905,3.0905,3.0904,0,3.0528,3.0576,3.0586,3.062,3.0672,3.0674,3.0725,3.0737,3.0758,3.0791,3.0782,3.0813,3.0815,3.0847,3.0848,3.0896,3.0905,3.0908,3.0907,3.0908,3.0907,3.0919,3.0913,3.0907,3.0907,3.0906,3.0906,0,3.0606,3.0615,3.0673,3.0699,3.0706,3.0744,3.0764,3.0795,3.0803,3.0845,3.0855,3.0867,3.0903,3.0908,3.0951,3.0952,3.1009,3.1004,3.1001,3.1,3.1034,3.103,3.115,3.1165,3.1066,3.1067,3.1068,0,3.066,3.0697,3.0726,3.0749,3.0765,3.0801,3.0824,3.0826,3.0849,3.088,3.0906,3.0942,3.0971,3.1029,3.104,3.1072,3.1067,3.1107,3.1072,3.107,3.1065,3.1063,3.1065,3.1113,3.1114,3.1115,3.1116,0,3.0755,3.0757,3.0791,3.0826,3.0853,3.088,3.0906,3.0924,3.0929,3.0956,3.0994,3.1016,3.1059,3.1094,3.1125,3.1138,3.1127,3.1127,3.1137,3.1137,3.1133,3.1134,3.1018,3.1124,3.1123,3.1123,3.1122,3.1122,3.0822,3.0853,3.0878,3.0915,3.0935,3.0959,3.0988,3.0999,3.1032,3.1068,3.1067,3.1108,3.113,3.1171,3.1185,3.1216,3.1203,3.1217,3.122,3.1224,3.1226,3.1129,3.1222,3.1222,3.1221,3.1221,3.1221,0,3.0915,3.093,3.0964,3.1,3.1029,3.1018,3.1045,3.1069,3.1106,3.1128,3.1156,3.1198,3.1232,3.1245,3.1277,3.1299,3.1295,3.1307,3.1305,3.1307,3.1237,3.1225,3.131,3.131,3.131,3.131,3.131,3.131,3.0966,3.1018,3.1023,3.1083,3.1098,3.1139,3.1155,3.1176,3.1193,3.1242,3.127,3.1278,3.1296,3.1329,3.1359,3.1361,3.1373,3.1387,3.1388,3.1322,3.1313,3.1304,3.1292,3.139,3.139,3.1455,3.1456,3.1456]}]]